Overview Statistics Trail Chart Weather Telemetry Raw packets
 

This is the latest recevied weather packets stored in our database for station/object 4S6DRJ-13. If no packets are shown the sender has not sent any weather packets the latest 10 day(s).

<< 146 147 148 149 150 151 152 >>
Time Temp. Humidity Pressure Rain* Wind** Luminosity Snow
1788242467 30.56° C 72% 1009.3 hPa 0 mm 2.24 m/s, 174° 392 W/m² -
1788242406 30.56° C 72% 1009.5 hPa 0 mm 1.79 m/s, 273° 891 W/m² -
1788242346 30.56° C 72% 1009.4 hPa 0 mm 3.13 m/s, 343° 575 W/m² -
1788242284 30.56° C 72% 1009.4 hPa 0 mm 2.68 m/s, 338° 1111 W/m² -
1788242224 30.56° C 74% 1009.5 hPa 0 mm 1.34 m/s, 10° 1124 W/m² -
1788242162 30.56° C 73% 1009.2 hPa 0 mm 2.68 m/s, 159° 1104 W/m² -
1788242102 30.56° C 74% 1009.5 hPa 0 mm 1.79 m/s, 213° 400 W/m² -
1788242041 30.56° C 73% 1009.5 hPa 0 mm 1.79 m/s, 104° 433 W/m² -
1788241980 30.56° C 73% 1009.3 hPa 0 mm 2.24 m/s, 200° 363 W/m² -
1788241918 30.56° C 73% 1009.4 hPa 0 mm 0.89 m/s, 282° 857 W/m² -
1788241858 30.56° C 72% 1009.5 hPa 0 mm 1.79 m/s, 205° 842 W/m² -
1788241796 30.56° C 73% 1009.5 hPa 0 mm 1.79 m/s, 286° 400 W/m² -
1788241736 30.56° C 72% 1009.5 hPa 0 mm 1.79 m/s, 158° 322 W/m² -
1788241674 30.56° C 73% 1009.5 hPa 0 mm 1.79 m/s, 248° 365 W/m² -
1788241613 30.56° C 72% 1009.4 hPa 0 mm 2.24 m/s, 124° 903 W/m² -
1788241553 30.56° C 73% 1009.6 hPa 0 mm 0.45 m/s, 281° 418 W/m² -
1788241491 30.56° C 73% 1009.6 hPa 0 mm 1.34 m/s, 260° 543 W/m² -
1788241431 30.56° C 73% 1009.5 hPa 0 mm 1.79 m/s, 314° 994 W/m² -
1788241370 30.56° C 74% 1009.4 hPa 0 mm 1.34 m/s, 154° 542 W/m² -
1788241309 30.56° C 75% 1009.2 hPa 0 mm 0.89 m/s, 311° 656 W/m² -
1788241247 30.56° C 75% 1009.4 hPa 0 mm 0.45 m/s, 355° 607 W/m² -
1788241186 30.56° C 75% 1009.4 hPa 0 mm 1.34 m/s, 213° 791 W/m² -
1788241125 30.56° C 75% 1009.4 hPa 0 mm 3.13 m/s, 227° 998 W/m² -
1788241065 30.56° C 75% 1009.4 hPa 0 mm 0.45 m/s, 26° 389 W/m² -
1788241004 30.56° C 74% 1009.4 hPa 0 mm 0.89 m/s, 294° 303 W/m² -

* Rain latest hour (hover to see other rain measurements)
** Current wind speed in m/s (hover to see current wind gust speed)